Weather History for KCBK - November, 2013

Change the Weather History Date:

Sunday, November 17, 2013

  Actual Average (KGLD) Record (KGLD)
Temperature  
Mean Temperature 40 °F 38 °F  
Max Temperature 53 °F 52 °F 79 °F (1943)
Min Temperature 26 °F 25 °F 3 °F (1955)
Degree Days  
Heating Degree Days 26 27  
Month to date heating degree days 389  
Since 1 July heating degree days 929  
Cooling Degree Days 0 0  
Month to date cooling degree days 0  
Year to date cooling degree days 941  
Moisture  
Dew Point 23 °F    
Average Humidity 52    
Maximum Humidity 93    
Minimum Humidity 21    
Precipitation  
Precipitation 0.00 in 0.02 in 0.53 in (1971)
Month to date precipitation 0.46  
Year to date precipitation 18.95  
Snow  
Snow 0.00 in 0.20 in - ()
Month to date snowfall 2.4  
Since 1 July snowfall 5.0  
Since 1 September snowfall 5.0  
Snow Depth -    
Sea Level Pressure  
Sea Level Pressure 29.80 in    
Wind  
Wind Speed 18 mph (WNW)    
Max Wind Speed 39 mph    
Max Gust Speed 51 mph    
Visibility 10 miles    
Events      
T = Trace of Precipitation, MM = Missing Value Source: NWS Daily Summary

Daily Weather History Graph

Daily Weather History Graph

Search for Another Location

Airport or City:

Trip Planner

Search our weather history database for the weather conditions in past years. The results will help you decide how hot, cold, wet, or windy it might be!

Date:

Astronomy

Nov. 17, 2013 Rise Set
Actual Time 7:30 AM CST 5:27 PM CST
Civil Twilight 7:01 AM CST 5:56 PM CST
Nautical Twilight 6:29 AM CST 6:28 PM CST
Astronomical Twilight 5:57 AM CST 7:00 PM CST
Moon 5:45 PM CST (11/17) 7:26 AM CST (11/17)
Length of Visible Light 10h 54m
Length of Day
9h 56m
Full, 100% of the Moon is Illuminated
Nov 17
Full
Nov 25
Last Quarter
Dec 2
New
Dec 9
First Quarter
Dec 17
Full

Hourly Weather History & Observations

Time (CST) Temp. Windchill Dew Point Humidity Pressure Visibility Wind Dir Wind Speed Gust Speed Precip Events Conditions
12:15 AM 39.2 °F 30.8 °F 33.8 °F 81% 29.41 in 10.0 mi NW 15.0 mph - N/A   Clear
12:35 AM 39.2 °F 30.5 °F 32.0 °F 75% 29.44 in 10.0 mi NNW 16.1 mph 24.2 mph N/A   Clear
12:55 AM 41.0 °F 32.8 °F 32.0 °F 70% 29.46 in 10.0 mi NW 16.1 mph - N/A   Clear
1:15 AM 42.8 °F 34.5 °F 33.8 °F 70% 29.48 in 10.0 mi NW 18.4 mph 24.2 mph N/A   Scattered Clouds
1:35 AM 42.8 °F 34.8 °F 33.8 °F 70% 29.51 in 10.0 mi NW 17.3 mph 23.0 mph N/A   Scattered Clouds
1:55 AM 46.4 °F 38.1 °F 35.6 °F 66% 29.51 in 10.0 mi NW 24.2 mph 31.1 mph N/A   Mostly Cloudy
2:15 AM 46.4 °F 40.4 °F 35.6 °F 66% 29.48 in 10.0 mi NNW 13.8 mph 19.6 mph N/A   Overcast
2:35 AM 44.6 °F 38.8 °F 35.6 °F 71% 29.50 in 10.0 mi NW 11.5 mph - N/A   Scattered Clouds
2:55 AM 41.0 °F 35.2 °F 35.6 °F 81% 29.52 in 10.0 mi WNW 9.2 mph - N/A   Clear
3:15 AM 37.4 °F 31.4 °F 33.8 °F 87% 29.53 in 10.0 mi WNW 8.1 mph - N/A   Clear
3:35 AM 35.6 °F 28.6 °F 33.8 °F 93% 29.54 in 10.0 mi West 9.2 mph - N/A   Clear
3:55 AM 37.4 °F 29.8 °F 35.6 °F 93% 29.56 in 10.0 mi West 11.5 mph - N/A   Clear
4:15 AM 39.2 °F 32.0 °F 33.8 °F 81% 29.57 in 10.0 mi West 11.5 mph - N/A   Clear
4:35 AM 35.6 °F 28.0 °F 33.8 °F 93% 29.56 in 10.0 mi West 10.4 mph - N/A   Clear
4:55 AM 37.4 °F 30.3 °F 32.0 °F 81% 29.57 in 10.0 mi West 10.4 mph - N/A   Clear
5:15 AM 35.6 °F 27.5 °F 32.0 °F 87% 29.58 in 10.0 mi WSW 11.5 mph - N/A   Clear
5:35 AM 35.6 °F 27.5 °F 32.0 °F 87% 29.59 in 10.0 mi West 11.5 mph - N/A   Clear
5:55 AM 35.6 °F 26.6 °F 32.0 °F 87% 29.60 in 10.0 mi West 13.8 mph - N/A   Clear
6:15 AM 35.6 °F 26.2 °F 32.0 °F 87% 29.62 in 10.0 mi West 15.0 mph - N/A   Clear
6:35 AM 35.6 °F 26.2 °F 32.0 °F 87% 29.63 in 10.0 mi West 15.0 mph - N/A   Clear
6:55 AM 37.4 °F 27.5 °F 32.0 °F 81% 29.65 in 10.0 mi West 18.4 mph - N/A   Clear
7:15 AM 37.4 °F 27.5 °F 30.2 °F 75% 29.68 in 10.0 mi West 18.4 mph 24.2 mph N/A   Clear
7:35 AM 37.4 °F 27.2 °F 30.2 °F 75% 29.69 in 10.0 mi West 19.6 mph - N/A   Scattered Clouds
7:55 AM 39.2 °F 28.7 °F 30.2 °F 70% 29.71 in 10.0 mi West 23.0 mph 27.6 mph N/A   Mostly Cloudy
8:15 AM 41.0 °F 30.9 °F 30.2 °F 65% 29.72 in 10.0 mi WNW 24.2 mph 29.9 mph N/A   Mostly Cloudy
8:35 AM 42.8 °F 33.1 °F 28.4 °F 57% 29.74 in 10.0 mi WNW 25.3 mph 34.5 mph N/A   Clear
8:55 AM 44.6 °F 35.1 °F 28.4 °F 53% 29.76 in 10.0 mi WNW 27.6 mph 32.2 mph N/A   Clear
9:15 AM 46.4 °F 37.7 °F 26.6 °F 46% 29.78 in 10.0 mi WNW 26.5 mph 31.1 mph N/A   Clear
9:35 AM 46.4 °F 36.5 °F 23.0 °F 40% 29.79 in 10.0 mi WNW 34.5 mph 49.5 mph N/A   Clear
9:55 AM 50.0 °F - 21.2 °F 32% 29.82 in 10.0 mi WNW 32.2 mph 47.2 mph N/A   Clear
10:15 AM 50.0 °F - 19.4 °F 30% 29.83 in 10.0 mi WNW 39.1 mph 48.3 mph N/A   Clear
10:35 AM 50.0 °F - 17.6 °F 28% 29.85 in 10.0 mi WNW 36.8 mph 50.6 mph N/A   Clear
10:55 AM 50.0 °F - 15.8 °F 26% 29.85 in 10.0 mi WNW 39.1 mph 49.5 mph N/A   Clear
11:15 AM 51.8 °F - 15.8 °F 24% 29.86 in 10.0 mi WNW 33.4 mph 48.3 mph N/A   Clear
11:35 AM 51.8 °F - 15.8 °F 24% 29.86 in 10.0 mi WNW 33.4 mph 47.2 mph N/A   Clear
11:55 AM 51.8 °F - 17.6 °F 26% 29.86 in 10.0 mi NW 32.2 mph 41.4 mph N/A   Clear
12:15 PM 51.8 °F - 15.8 °F 24% 29.87 in 10.0 mi WNW 34.5 mph 44.9 mph N/A   Clear
12:35 PM 51.8 °F - 15.8 °F 24% 29.88 in 10.0 mi NW 34.5 mph 43.7 mph N/A   Clear
12:55 PM 51.8 °F - 15.8 °F 24% 29.88 in 10.0 mi NW 31.1 mph 40.3 mph N/A   Clear
1:15 PM 51.8 °F - 15.8 °F 24% 29.89 in 10.0 mi NW 31.1 mph 39.1 mph N/A   Clear
1:35 PM 53.6 °F - 15.8 °F 22% 29.89 in 10.0 mi NW 29.9 mph 40.3 mph N/A   Clear
1:55 PM 53.6 °F - 14.0 °F 21% 29.90 in 10.0 mi NW 31.1 mph 40.3 mph N/A   Clear
2:15 PM 53.6 °F - 14.0 °F 21% 29.91 in 10.0 mi NW 25.3 mph 36.8 mph N/A   Clear
2:35 PM 53.6 °F - 14.0 °F 21% 29.91 in 10.0 mi NW 28.8 mph 33.4 mph N/A   Clear
2:55 PM 51.8 °F - 14.0 °F 22% 29.93 in 10.0 mi NW 27.6 mph 32.2 mph N/A   Clear
3:15 PM 51.8 °F - 14.0 °F 22% 29.93 in 10.0 mi NW 25.3 mph 34.5 mph N/A   Clear
3:35 PM 51.8 °F - 15.8 °F 24% 29.95 in 10.0 mi NW 21.9 mph 29.9 mph N/A   Clear
3:55 PM 51.8 °F - 15.8 °F 24% 29.97 in 10.0 mi NW 16.1 mph 25.3 mph N/A   Clear
4:15 PM 51.8 °F - 15.8 °F 24% 29.98 in 10.0 mi NW 18.4 mph - N/A   Clear
4:35 PM 50.0 °F - 15.8 °F 26% 29.99 in 10.0 mi NNW 16.1 mph 24.2 mph N/A   Clear
4:55 PM 48.2 °F - 15.8 °F 27% 30.00 in 10.0 mi NNW 12.7 mph - N/A   Clear
5:15 PM 44.6 °F 39.2 °F 15.8 °F 31% 30.01 in 10.0 mi NW 10.4 mph - N/A   Clear
5:35 PM 41.0 °F 35.2 °F 14.0 °F 33% 30.02 in 10.0 mi NNW 9.2 mph - N/A   Clear
5:55 PM 42.8 °F 39.3 °F 14.0 °F 31% 30.04 in 10.0 mi NW 5.8 mph - N/A   Clear
6:15 PM 35.6 °F 28.6 °F 14.0 °F 41% 30.05 in 10.0 mi NW 9.2 mph - N/A   Clear
6:35 PM 32.0 °F 27.5 °F 14.0 °F 48% 30.07 in 10.0 mi WNW 4.6 mph - N/A   Clear
6:55 PM 32.0 °F 24.2 °F 15.8 °F 51% 30.07 in 10.0 mi NNW 9.2 mph - N/A   Clear
7:15 PM 32.0 °F 26.4 °F 14.0 °F 48% 30.09 in 10.0 mi West 5.8 mph - N/A   Clear
7:35 PM 28.4 °F 22.2 °F 15.8 °F 59% 30.09 in 10.0 mi West 5.8 mph - N/A   Clear
7:55 PM 33.8 °F 27.7 °F 15.8 °F 48% 30.09 in 10.0 mi WNW 6.9 mph - N/A   Clear
8:15 PM 32.0 °F 26.4 °F 15.8 °F 51% 30.09 in 10.0 mi WNW 5.8 mph - N/A   Clear
8:35 PM 28.4 °F 24.6 °F 15.8 °F 59% 30.10 in 10.0 mi WSW 3.5 mph - N/A   Clear
8:55 PM 28.4 °F 23.3 °F 15.8 °F 59% 30.10 in 10.0 mi SW 4.6 mph - N/A   Clear
9:15 PM 26.6 °F 18.2 °F 15.8 °F 64% 30.11 in 10.0 mi SW 8.1 mph - N/A   Clear
9:35 PM 26.6 °F 19.1 °F 17.6 °F 69% 30.12 in 10.0 mi WSW 6.9 mph - N/A   Clear